TimeCET,TemperatureF,Dew PointF,Humidity,Sea Level PressureIn,VisibilityMPH,Wind Direction,Wind SpeedMPH,Gust SpeedMPH,PrecipitationIn,Events,Conditions,WindDirDegrees,DateUTC
1:00 AM,43,42,92,30.39,11,Calm,Calm,,,,,,2013-01-09 00:00:00
5:00 AM,41.0,39.2,93,30.36,-9999.0,Calm,Calm,-,N/A,,Clear,0,2013-01-09 04:00:00
5:30 AM,39.2,39.2,100,30.33,-9999.0,Variable,1.2,-,N/A,,Clear,0,2013-01-09 04:30:00
6:00 AM,39.2,37.4,93,30.33,-9999.0,Calm,Calm,-,N/A,,Clear,0,2013-01-09 05:00:00
6:30 AM,39.2,39.2,100,30.33,-9999.0,Calm,Calm,-,N/A,,Clear,0,2013-01-09 05:30:00
7:00 AM,38,38,100,30.36,11,Calm,Calm,,,,,,2013-01-09 06:00:00
7:00 AM,39.2,39.2,100,30.33,-9999.0,Calm,Calm,-,N/A,,Clear,0,2013-01-09 06:00:00
7:30 AM,39.2,39.2,100,30.33,-9999.0,Calm,Calm,-,N/A,,Clear,0,2013-01-09 06:30:00
8:00 AM,39.2,39.2,100,30.36,5.6,Calm,Calm,-,N/A,,Unknown,0,2013-01-09 07:00:00
8:30 AM,39.2,39.2,100,30.36,-9999.0,Calm,Calm,-,N/A,,Clear,0,2013-01-09 07:30:00
9:00 AM,39.2,39.2,100,30.36,-9999.0,Calm,Calm,-,N/A,,Clear,0,2013-01-09 08:00:00
9:30 AM,42.8,41.0,93,30.39,-9999.0,Variable,2.3,-,N/A,,Clear,0,2013-01-09 08:30:00
10:00 AM,42.8,41.0,93,30.39,-9999.0,NNW,5.8,-,N/A,,Clear,340,2013-01-09 09:00:00
10:30 AM,44.6,41.0,87,30.39,-9999.0,Variable,1.2,-,N/A,,Clear,0,2013-01-09 09:30:00
11:00 AM,48.2,42.8,82,30.42,-9999.0,Variable,2.3,-,N/A,,Clear,0,2013-01-09 10:00:00
11:30 AM,51.8,42.8,71,30.39,-9999.0,North,3.5,-,N/A,,Clear,360,2013-01-09 10:30:00
12:00 PM,53.6,42.8,67,30.39,-9999.0,North,8.1,-,N/A,,Clear,360,2013-01-09 11:00:00
12:30 PM,55.4,44.6,67,30.39,-9999.0,North,5.8,-,N/A,,Clear,10,2013-01-09 11:30:00
1:00 PM,58,47,59,30.40,19,North,6.9,,,,Clear,0,2013-01-09 12:00:00
1:00 PM,57.2,44.6,63,30.39,-9999.0,North,5.8,-,N/A,,Clear,360,2013-01-09 12:00:00
1:30 PM,59.0,44.6,59,30.36,-9999.0,North,4.6,-,N/A,,Clear,10,2013-01-09 12:30:00
2:00 PM,60.8,44.6,55,30.36,-9999.0,North,8.1,-,N/A,,Clear,10,2013-01-09 13:00:00
2:30 PM,60.8,44.6,55,30.36,-9999.0,North,8.1,-,N/A,,Clear,360,2013-01-09 13:30:00
3:00 PM,60.8,44.6,55,30.33,-9999.0,North,9.2,-,N/A,,Clear,10,2013-01-09 14:00:00
3:30 PM,62.6,44.6,52,30.33,-9999.0,North,8.1,-,N/A,,Clear,360,2013-01-09 14:30:00
4:00 PM,62.6,42.8,48,30.36,-9999.0,NNW,10.4,-,N/A,,Clear,340,2013-01-09 15:00:00
4:30 PM,60.8,42.8,52,30.33,-9999.0,NNW,6.9,-,N/A,,Clear,340,2013-01-09 15:30:00
5:00 PM,60.8,44.6,55,30.36,-9999.0,North,8.1,-,N/A,,Clear,350,2013-01-09 16:00:00
5:30 PM,60.8,46.4,59,30.36,-9999.0,North,5.8,-,N/A,,Clear,360,2013-01-09 16:30:00
6:00 PM,59.0,46.4,63,30.36,-9999.0,NNW,5.8,-,N/A,,Clear,340,2013-01-09 17:00:00
6:30 PM,55.4,46.4,72,30.33,-9999.0,NNW,4.6,-,N/A,,Clear,340,2013-01-09 17:30:00
7:00 PM,53,47,74,30.37,16,NNW,4.6,,,,Clear,330,2013-01-09 18:00:00
7:00 PM,53.6,46.4,77,30.36,-9999.0,NNW,3.5,-,N/A,,Clear,330,2013-01-09 18:00:00
7:30 PM,51.8,44.6,76,30.36,-9999.0,NNW,8.1,-,N/A,,Clear,330,2013-01-09 18:30:00
8:00 PM,50.0,44.6,82,30.36,-9999.0,Variable,2.3,-,N/A,,Clear,0,2013-01-09 19:00:00
8:30 PM,50.0,44.6,82,30.36,-9999.0,North,3.5,-,N/A,,Clear,350,2013-01-09 19:30:00
9:00 PM,48.2,44.6,87,30.36,-9999.0,Calm,Calm,-,N/A,,Clear,0,2013-01-09 20:00:00
9:30 PM,48.2,44.6,87,30.36,-9999.0,Calm,Calm,-,N/A,,Clear,0,2013-01-09 20:30:00
10:00 PM,48.2,42.8,82,30.36,-9999.0,Variable,2.3,-,N/A,,Clear,0,2013-01-09 21:00:00
10:30 PM,44.6,42.8,93,30.36,-9999.0,Calm,Calm,-,N/A,,Clear,0,2013-01-09 21:30:00
11:00 PM,44.6,42.8,93,30.36,-9999.0,Calm,Calm,-,N/A,,Clear,0,2013-01-09 22:00:00